Regional Weather Roundup
Issued by NWS Jackson, KY

Home | Current Version | Previous Version | Graphics & Text | Print | Product List | Glossary On
Versions: 1 2 3 4 5 6 7 8 9 10 11 12 13 14 15 16 17 18 19 20 21 22 23 24 25 26 27 28 29 30 31 32 33 34 35 36 37 38 39 40 41 42 43 44 45 46 47 48 49 50
000
ASUS43 KJKL 160319
RWRJKL

EAST KENTUCKY HOURLY WEATHER ROUNDUP
NATIONAL WEATHER SERVICE JACKSON KY
1100 PM EDT MON SEP 15 2014

NOTE: "FAIR" INDICATES FEW OR NO CLOUDS BELOW 12,000 FEET WITH
NO SIGNIFICANT WEATHER AND/OR OBSTRUCTIONS TO VISIBILITY.

* THESE REPORTS ARE NOT UNDER NWS QUALITY CONTROL AND MAY NOT
  REPORT WEATHER SUCH AS PRECIPITATION AND FOG.

KYZ079-080-083-085-087-088-110-112-115-119-120-160400
...EASTERN KENTUCKY...

CITY           SKY/WX    TMP DP  RH WIND       PRES   REMARKS
JACKSON        LGT RAIN  63  61  93 VRB3      30.13F FOG
LONDON         CLOUDY    67  61  81 CALM      30.14S
MONTICELLO*    MOCLDY    64  63  97 CALM      30.14F
WILLIAMSBURG*  MOCLDY    63  63 100 CALM      30.14F
MIDDLESBORO*   MOCLDY    64  63  96 CALM      30.15F
HARLAN APT*    CLOUDY    61  61 100 MISG      30.16S VSB<1/4
HAZARD APT*    LGT RAIN  64  64 100 CALM      30.16R
BLACK MTN*       N/A     59  55  88 S10         N/A
PIKEVILLE APT* MOCLDY    64  61  88 W5        30.15R
BIG SANDY*     RAIN      64  61  91 S5        30.13F
MOREHEAD APT*  CLOUDY    61  61 100 CALM      30.12S
ASHLAND*       PTCLDY    64  57  77 N6        30.08R
$$

KYZ035-036-041-042-044-050-067-078-099-160400
...CENTRAL KENTUCKY...

CITY           SKY/WX    TMP DP  RH WIND       PRES   REMARKS
MT STERLING*   CLOUDY    61  61 100 NE3       30.11F
FLEMING/MASON* CLOUDY    59  59 100 NW3       30.11R
DANVILLE*      MOCLDY    63  59  88 S6        30.11F
RICHMOND*      MOCLDY    63  59  88 SE3       30.10F
LEXINGTON      CLOUDY    66  58  75 S9        30.09F
FRANKFORT      CLOUDY    63  59  87 S5        30.08S
$$

KYZ091>093-OHZ055-061-077-WVZ005-015-034-035-042-160400
...SOUTHERN OHIO/WEST VIRGINIA...

CITY           SKY/WX    TMP DP  RH WIND       PRES   REMARKS
COVINGTON      LGT RAIN  60  57  89 N7        30.09S
COLUMBUS       CLOUDY    65  51  60 NW7       30.07S
DAYTON         CLOUDY    59  56  89 NW7       30.13R
WILMINGTON     LGT RAIN  58  55  90 W12       30.11R FOG
HUNTINGTON     LGT RAIN  64  60  87 SW7       30.05F
PINEVILLE*     CLOUDY    62  62 100 MISG      30.19R
BECKLEY        MOCLDY    60  55  83 NW6       30.15R
BLUEFIELD      CLOUDY    64  60  87 SW7       30.16F
$$

VAZ002-007-008-TNZ017-027-036-066-071-160400
...SOUTHWEST VIRGINIA/EAST TENNESSEE...

CITY           SKY/WX    TMP DP  RH WIND       PRES   REMARKS
WISE*          CLOUDY    63  59  88 SW3       30.18F
JONESVILLE*    FOG       64  64 100 CALM      30.17S VSB<1/4
ABINGDON*      CLOUDY    64  64  99 CALM      30.18R FOG
BRISTOL        MOCLDY    65  62  90 CALM      30.16R
KNOXVILLE      CLOUDY    71  68  90 W3        30.13S
OAK RIDGE      CLOUDY    69  68  96 CALM      30.15S FOG
CROSSVILLE     MOCLDY    66  62  87 CALM      30.18S
NASHVILLE      MOCLDY    66  63  90 CALM      30.12F
$$

...KEY TO REMARKS...
VSB - VISIBILITY IN MILES
WCI - WIND CHILL INDEX
HX  - HEAT INDEX

$$



USA.gov is the U.S. government's official web portal to all federal, state and local government web resources and services.